Location: Novo Ouro Preto
(19.8840°S, 43.9844°W)
Time: 09:42:04
(UTC+00:00)

SL-16 R/B - Pass Details

Date: 18 September 2020
Orbit: 842 x 848 km, 71.0° (Epoch: 21 October)

Event Time Altitude Azimuth Distance (km) Brightness Sun altitude
Rises 23:02:10 0° 320° (NW) 3,384 5.7 -31.4°
Reaches altitude 10° 23:04:53 10° 310° (NW) 2,455 5.0 -32.1°
Maximum altitude 23:09:47 30° 249° (WSW) 1,460 3.9 -33.2°
Drops below altitude 10° 23:14:44 10° 188° (S) 2,475 4.8 -34.3°
Sets 23:17:29 0° 177° (S) 3,415 5.5 -35.0°
